Weather in Ivane-Puste

Ukraine / Ternopil District     48°38′37″N   26°11′24″E
temp.,
°C
wind,
m/s
gust,
m/s
humid.,
%
clouds,
%
prec.,
mm/h
press.,
hPa
HPBL,
m
11 may, tue
tue1100:00+10ese36780 0.0 102191
03:00+9ese37800 0.0 1021113
06:00+8ese36780 0.0 102192
09:00+13ese58630 0.0 1021433
12:00+17se56530 0.0 10201115
15:00+19se55430 0.0 10181399
18:00+19ese56500 0.0 10171244
21:00+14ese35690 0.0 101666
12 may, wed
wed1200:00+12ese34800 0.0 101655
03:00+11ese22890 0.0 101524
06:00+10e34920 0.0 101453
09:00+14e7886100 0.0 1013698
12:00+12ese7976100 0.0 1014670
15:00+12se577075 0.0 1013588
18:00+13sse466759 0.0 1012777
21:00+11ese5106866 0.0 1012601
13 may, thu
thu1300:00+9ese5117379 0.0 1011443
03:00+9ese51073100 0.0 1009538
06:00+9se61281100 0.0 1007617
09:00+9se71296100 2.7 1006635
12:00+10se81495100 0.8 1006624
15:00+14sse61285100 1.5 1004759
18:00+13s51091100 4.1 1004430
21:00+12se51194100 5.5 1005373
14 may, fri
fri1400:00+10se499840 0.0 1005250
03:00+9sse369819 0.0 1005122
06:00+8sse239798 0.0 100662
09:00+13se3385100 0.0 1005244
12:00+14sse3482100 0.1 1006281
15:00+18w3563100 2.2 10061167
18:00+17w476695 0.9 10071022
21:00+12wnw11765 0.9 100810
15 may, sat
sat1500:00+10w117835 0.0 100910
03:00+9wsw11815 0.0 101010
06:00+9s118285 0.0 101110
09:00+14sse237031 0.0 1011340
12:00+18s336168 0.8 10111227
15:00+19s235556 1.9 10101428
18:00+19ne22599 1.1 1009925
21:00+14ne2278100 1.9 100924